This is the latest recevied weather packets stored in our database for station/object AD8BV. If no packets are shown the sender has not sent any weather packets the latest 10 day(s).
| Time | Temp. | Humidity | Pressure | Rain* | Wind** | Luminosity | Snow |
|---|---|---|---|---|---|---|---|
| 1777562109 | 8.89° C | 75% | 1017.2 hPa | 0 mm | - | 106 W/m² | - |
| 1777561806 | 9.44° C | 72% | 1017 hPa | 0 mm | - | 716 W/m² | - |
| 1777561502 | 9.44° C | 74% | 1017.1 hPa | 0 mm | - | 720 W/m² | - |
| 1777561197 | 8.89° C | 75% | 1017 hPa | 0 mm | - | 739 W/m² | - |
| 1777560892 | 8.89° C | 75% | 1017.1 hPa | 0 mm | - | 764 W/m² | - |
| 1777560590 | 8.33° C | 75% | 1017.2 hPa | 0 mm | - | 725 W/m² | - |
| 1777560287 | 7.78° C | 76% | 1017.1 hPa | 0 mm | - | 666 W/m² | - |
| 1777559985 | 7.22° C | 78% | 1017.1 hPa | 0 mm | - | 304 W/m² | - |
| 1777559685 | 7.78° C | 78% | 1017 hPa | 0 mm | - | 147 W/m² | - |
| 1777559383 | 7.78° C | 78% | 1017.1 hPa | 0 mm | - | 397 W/m² | - |
| 1777559079 | 7.78° C | 76% | 1016.9 hPa | 0 mm | - | 333 W/m² | - |
| 1777558774 | 6.67° C | 79% | 1017 hPa | 0 mm | - | 286 W/m² | - |
| 1777558470 | 7.22° C | 79% | 1017.1 hPa | 0 mm | - | 103 W/m² | - |
| 1777558166 | 7.78° C | 80% | 1017 hPa | 0 mm | - | 127 W/m² | - |
| 1777557863 | 7.22° C | 79% | 1017 hPa | 0 mm | - | 228 W/m² | - |
| 1777557560 | 6.67° C | 83% | 1016.8 hPa | 0 mm | - | 179 W/m² | - |
| 1777557256 | 6.67° C | 82% | 1016.9 hPa | 0 mm | - | 135 W/m² | - |
| 1777556952 | 6.67° C | 85% | 1017 hPa | 0 mm | - | 204 W/m² | - |
| 1777556648 | 6.67° C | 85% | 1016.8 hPa | 0 mm | - | 189 W/m² | - |
| 1777556343 | 6.67° C | 85% | 1016.7 hPa | 0 mm | - | 195 W/m² | - |
| 1777556039 | 6.67° C | 88% | 1016.9 hPa | 0 mm | - | 208 W/m² | - |
| 1777555734 | 5.56° C | 90% | 1016.8 hPa | 0 mm | - | 140 W/m² | - |
| 1777555431 | 6.11° C | 89% | 1016.9 hPa | 0 mm | - | 58 W/m² | - |
| 1777555126 | 6.11° C | 91% | 1016.8 hPa | 0 mm | - | 96 W/m² | - |
| 1777554825 | 5.56° C | 91% | 1017.1 hPa | 0 mm | - | 151 W/m² | - |
* Rain latest hour (hover to see other rain measurements)
** Current wind speed in m/s (hover to see current wind gust speed)